RH
41 36 34 32 33 37 40 41 43 45 46 45 45 46 50 53 53 62 68 79 82 91 95 94 98 94 98 97 98 98 97 98 98 98 98 98 96 95
29 29 28 30 36 39 40 41 42 47 48 47 47 46 55 56 60 70 75 80 86 97 95 94 90 96 97 98 98 97 98 96 96 96 97 95 94 88
26 28 33 37 40 42 43 44 47 47 48 50 51 52 58 61 65 74 82 83 92 93 92 91 93 95 95 98 98 97 99 96 97 96 91 82 76 70
34 38 40 41 43 45 46 46 49 51 55 55 55 58 60 65 71 75 82 84 92 93 92 94 90 89 90 92 97 93 96 97 90 79 72 62 51 45
41 41 42 44 46 46 48 50 52 57 58 58 59 64 63 67 71 74 78 83 84 86 85 83 83 85 88 87 87 81 71 62 55 39 34 32 32 33
44 44 46 46 48 49 50 52 54 54 49 46 45 44 45 44 47 48 51 54 58 62 63 60 56 54 51 45 37 29 24 20 19 19 20 19 18 19
41 40 42 40 37 34 34 33 33 33 34 34 32 33 33 32 33 33 36 37 36 34 29 24 20 17 16 14 13 13 13 14 15 17 19 21 22 22
33 32 32 30 27 26 25 23 21 19 17 17 17 17 18 19 20 20 21 20 20 19 17 16 17 16 16 17 18 19 21 23 25 25 24 24 25 24
17 18 17 16 16 17 17 18 18 18 18 18 19 19 20 21 21 21 21 19 18 16 14 14 16 17 18 18 20 21 22 22 22 23 25 27 26 26
18 18 18 18 18 19 20 21 21 22 22 22 22 22 22 22 21 21 20 18 16 15 16 18 20 21 21 21 23 23 22 23 23 24 25 25 25 26
20 21 21 21 21 22 23 23 24 24 24 24 23 22 22 21 19 19 18 18 18 19 21 23 22 24 24 25 26 26 26 26 27 29 29 30 31 30
23 24 25 26 27 27 27 27 26 26 26 24 24 23 23 23 23 22 23 23 24 25 26 27 29 30 30 30 29 29 29 30 31 32 32 33 33 33
27 30 32 33 32 31 30 30 29 29 29 30 31 31 30 30 30 30 30 30 30 30 32 34 35 35 34 32 31 31 32 33 34 34 34 35 36 35
34 36 38 38 37 36 35 34 34 35 36 35 35 35 35 35 35 35 35 36 36 37 39 40 39 38 38 36 31 32 35 38 38 38 38 39 41 42
40 42 43 43 42 42 41 39 41 41 40 39 39 41 42 42 41 40 40 41 41 42 42 44 43 41 41 40 35 37 40 41 41 42 45 47 48 49
43 44 45 46 47 47 46 46 46 45 45 45 45 45 46 46 46 46 45 47 47 48 50 50 50 48 46 46 42 42 45 47 49 47 48 50 51 53
43 45 47 48 49 50 49 49 50 51 52 51 48 47 46 46 45 47 49 51 54 55 58 61 60 55 54 53 48 50 51 53 54 54 53 53 55 56
43 45 46 48 50 51 51 52 53 52 52 52 48 43 44 46 47 49 51 55 62 62 64 66 65 62 59 58 58 55 57 60 63 62 62 60 60 63
43 44 45 49 51 52 53 56 57 53 51 47 45 41 42 44 48 52 56 63 70 71 72 71 70 69 68 65 64 65 63 66 66 67 66 64 61 65
44 44 45 48 50 52 52 57 59 56 48 44 39 37 39 44 52 55 60 66 72 75 73 75 76 77 76 75 69 69 73 71 70 69 70 68 66 66
48 48 49 50 50 53 60 63 57 54 47 41 40 41 41 44 52 57 63 68 71 74 71 71 77 80 76 71 65 67 79 84 84 81 81 78 75 71
52 52 52 52 52 60 65 62 57 53 46 43 44 45 47 50 54 59 65 71 73 73 73 74 75 72 72 72 71 72 75 86 89 90 92 89 84 79
56 56 55 56 61 66 65 60 57 52 48 47 49 50 54 58 60 65 70 75 76 77 75 69 69 72 74 75 74 74 77 80 84 86 91 93 90 83